Lid_Strength_Index
2 2 2 2 2 2 2 2 2 1 1 1 1 1 1 1 1 6 8 6 5 -1 -1 6 7 7 8 9 11 13 15 16 14 13 13 12 12 11 9 10 10 8 7 5 2
3 3 2 2 2 2 2 2 2 1 1 1 1 1 1 1 7 9 3 -2 -2 -2 7 7 7 7 10 11 12 13 15 14 13 12 13 12 11 10 10 10 8 6 4 3 3
3 3 3 2 2 2 2 2 2 1 1 1 1 1 1 2 10 9 -2 -2 -3 -1 5 6 6 8 10 11 11 13 13 11 10 11 11 11 11 10 9 10 8 6 6 4 4
3 3 3 3 2 2 2 2 2 1 1 1 1 1 1 8 12 8 -4 -4 -3 1 5 7 8 10 12 11 11 12 10 10 10 9 11 11 9 10 10 9 6 5 4 4 4
3 3 3 3 3 2 2 2 2 2 2 1 1 0 5 9 9 6 -3 1 4 6 7 8 9 11 12 12 11 10 11 10 10 10 11 9 10 10 9 7 6 6 4 5 4
3 3 3 3 3 2 2 2 2 2 2 1 1 1 7 11 6 4 5 5 6 7 7 8 8 8 10 11 10 10 10 10 10 10 10 10 10 9 8 7 7 7 6 5 4
3 3 3 3 3 2 2 3 3 2 2 1 0 4 7 9 4 4 6 7 6 6 7 7 7 8 9 11 9 10 11 11 10 10 11 10 10 10 8 8 8 8 8 11 6
3 3 3 3 2 2 2 2 2 2 1 0 0 6 8 5 4 5 6 5 5 6 6 7 7 8 10 10 9 11 13 14 11 10 10 10 14 10 8 9 9 8 8 8 9
3 3 3 3 2 2 2 3 2 1 0 0 6 9 9 3 6 5 6 6 5 5 5 5 7 10 9 12 13 13 15 14 12 10 11 11 13 9 7 7 8 8 7 7 8
3 3 3 3 3 3 3 3 2 2 2 3 6 9 6 7 6 5 5 5 6 6 6 8 9 10 12 13 15 15 15 14 14 11 11 12 13 9 8 8 8 8 7 5 6
3 3 3 3 3 3 5 6 7 7 7 8 9 8 7 4 5 6 5 6 6 8 10 10 10 13 12 12 12 12 13 13 12 11 12 13 12 10 9 8 8 8 7 7 6
4 3 3 3 3 3 6 7 7 6 8 7 7 7 5 5 8 7 5 7 8 11 10 11 13 10 9 10 11 12 14 14 12 11 12 13 12 11 9 9 8 8 7 7 6
4 4 3 3 3 5 6 6 5 6 10 7 6 7 6 6 8 7 6 8 9 10 11 12 11 9 10 11 12 13 14 14 13 12 12 13 14 12 9 9 7 7 7 7 6
4 4 4 4 5 7 6 5 6 6 11 9 8 6 7 8 8 5 5 7 9 11 10 11 9 10 11 11 12 15 11 12 12 14 16 13 18 14 11 10 8 7 7 7 6
4 4 4 4 7 6 5 5 5 5 16 8 9 6 8 8 8 6 5 6 10 10 10 11 11 11 12 11 11 12 11 12 12 15 15 15 16 15 11 11 10 8 7 6 6
4 4 5 5 6 5 5 6 5 11 16 10 9 10 10 9 7 6 6 5 7 9 10 11 9 10 11 9 10 11 13 14 15 16 18 15 15 16 13 11 9 8 7 6 6
5 5 6 5 7 6 6 7 12 15 8 10 11 10 10 10 9 8 9 10 11 13 13 11 11 10 9 11 11 12 15 20 19 19 19 15 15 15 10 9 8 8 7 6 6
5 6 6 5 6 5 6 9 15 11 10 8 9 10 10 9 9 9 10 12 9 11 13 14 14 11 10 12 14 14 15 18 20 21 18 14 17 14 9 8 8 7 7 7 7
6 6 5 4 4 5 7 13 13 11 9 9 10 12 11 9 10 10 10 11 10 11 13 15 14 11 10 10 11 13 15 14 16 18 19 17 14 10 9 9 9 8 8 8 7
6 5 5 6 4 5 8 12 11 9 9 9 12 11 13 12 12 11 11 9 10 9 10 13 16 12 10 10 10 11 11 16 17 20 21 17 16 15 12 11 9 9 9 8 7
6 7 5 5 5 7 12 12 10 8 8 10 11 11 11 12 12 12 11 9 8 9 10 13 15 14 12 13 13 12 14 14 15 16 19 20 17 11 11 10 9 9 8 7 7
8 9 5 5 9 11 11 9 8 9 8 8 9 10 11 11 12 12 11 10 8 9 12 12 14 16 15 11 10 11 13 14 18 17 16 16 16 9 9 8 8 7 7 7 7
9 8 5 6 11 12 11 9 8 9 9 9 10 9 10 12 14 11 10 8 7 9 11 12 16 20 17 14 12 12 11 12 14 15 16 19 16 9 8 8 8 8 8 7 6
8 10 8 8 10 11 12 11 10 8 9 9 10 9 11 12 12 13 12 9 7 7 7 9 15 16 18 16 13 14 12 11 13 20 16 15 14 11 9 9 8 8 7 6 6
10 11 10 12 11 11 11 10 10 11 9 10 11 11 11 14 14 13 11 11 9 7 10 12 15 14 13 12 11 12 12 11 13 13 15 13 13 11 10 9 7 7 7 6 6
11 12 11 11 10 11 11 12 10 10 11 11 12 11 12 14 13 14 12 13 13 11 12 12 15 14 14 11 11 13 11 11 11 12 12 12 13 9 8 8 8 7 6 6 6
11 11 10 11 11 12 12 11 10 10 10 10 11 12 13 11 10 11 11 11 12 12 13 14 14 15 16 12 12 15 13 12 12 11 12 14 11 9 8 8 7 7 6 6 6